Regional Weather Roundup
Issued by NWS

Home | Current Version | Previous Version | Graphics & Text | Print | Product List | Glossary On
Versions: 1 2 3 4 5 6 7 8 9 10 11 12 13 14 15 16 17 18 19 20 21 22 23 24 25 26 27 28
000
ASUS45 KSLC 282010
RWRUT

UTAH REGIONAL WEATHER ROUNDUP
NATIONAL WEATHER SERVICE SALT LAKE CITY UT
200 PM MDT SUN AUG 28 2016

UTZ001>011-023>025-282100-

NORTHERN UTAH

CITY           SKY/WX    TMP DP  RH WIND       PRES   REMARKS
BRIGHAM CITY     N/A     85  30  13 SW5       30.17F
HILL AFB       SUNNY     83  41  21 VRB5      30.19F
LOGAN          SUNNY     84  37  18 CALM      30.16F
OGDEN          SUNNY     84  40  21 MISG      30.17F
PROVO AIRPORT  MOSUNNY   82  43  24 VRB3      30.18F
SALT LAKE CITY MOSUNNY   88  39  17 VRB3      30.15F
VERNAL         SUNNY     79  41  25 VRB3      30.21F
WENDOVER       SUNNY     82  30  15 SE7       30.17S
HEBER CITY     SUNNY     82  27  13 CALM      30.21F
WEST JORDAN    SUNNY     84  39  20 E5        30.19S

$$

UTZ012>022-026-027-282100-

SOUTHERN/CENTRAL UTAH

CITY           SKY/WX    TMP DP  RH WIND       PRES   REMARKS
BLANDING       PTSUNNY   65  48  54 S5        30.37F
BRYCE CANYON   MOSUNNY   68  45  43 SE13      30.40S
CEDAR CITY     SUNNY     79  44  28 VRB5      30.25F
MILFORD        SUNNY     83  34  17 MISG      30.20F
MOAB/CYNLANDS  MOSUNNY   80  47  31 VRB5      30.20F
PRICE          MOSUNNY   78  38  23 S8        30.27F
ST GEORGE      CLEAR     82  54  36 CALM      30.14F

$$

REGIONAL REPORTS     COLORADO/ARIZONA

CITY           SKY/WX    TMP DP  RH WIND       PRES   REMARKS
CRAIG, CO      SUNNY     80  27  14 CALM      30.25F
GRAND JUNCTION PTSUNNY   71  49  45 NW3       30.24F
RIFLE          CLOUDY    76  48  37 VRB6      30.24F
MONTROSE       SUNNY     75  46  35 NW8       30.27F
CORTEZ         CLOUDY    69  50  50 W7        30.28F
PAGE, AZ       SUNNY     78  48  34 CALM      30.20F
GRAND CANYON   SUNNY     71  44  37 E7G16     30.35R
KINGMAN        SUNNY     85  48  27 CALM      30.14F
FLAGSTAFF      PTSUNNY   66  44  45 SE3       30.33F

$$

REGIONAL REPORTS    NEVADA/IDAHO/WYOMING

CITY           SKY/WX    TMP DP  RH WIND       PRES   REMARKS
LAS VEGAS, NV  MOSUNNY   90  46  21 NE5       30.03F
ELY            SUNNY     84  25  11 N8        30.28F
ELKO           SUNNY     87  23   9 S8        30.20F
POCATELLO, ID  SUNNY     85  32  15 W17       30.17S
BURLEY         SUNNY     80  43  26 W14       30.15F
EVANSTON, WY   PTSUNNY   81  24  12 W16G26    30.32S
ROCK SPRINGS   SUNNY     78  21  12 NW13G26   30.28F

$$




USA.gov is the U.S. government's official web portal to all federal, state and local government web resources and services.